Volver al catálogo

LIMASAT

ActivoRadioaficionadoVLEO
NORAD 65272·PAYLOAD·🇺🇸 United States

Lanzado Aug 22, 2025 desde Cape Canaveral Space Force Station

Loading…

Próximos Pases (próximas 24 horas)

TLE

ObsoletoSource: Mike McCants

Época: Sep 8, 2025, 19:27 UTC

1 65272U 25183B   25251.81098455 0.00075783  00000-0  38663-3 0    08
2 65272  49.5221 185.8300 0006423  21.0132 338.9866 15.80547521    07

Sigue LIMASAT en tiempo real con AllMySat

Download on the App Store